Gulkana, AK

1:12 PM AKDT on May 29, 2017 (GMT -0800)
Gulkana

Weather History for PAGK - March, 2015

Change the Weather History Date:

Wednesday, March 18, 2015

  Actual Average Record
Temperature  
Mean Temperature 24 °F -  
Max Temperature 42 °F 27 °F 50 °F (1981)
Min Temperature 7 °F 2 °F -35 °F (1959)
Degree Days  
Heating Degree Days 40    
Moisture  
Dew Point 9 °F    
Average Humidity 62    
Maximum Humidity 81    
Minimum Humidity 32    
Precipitation  
Precipitation 0.00 in - - ()
Sea Level Pressure  
Sea Level Pressure 29.98 in    
Wind  
Wind Speed 1 mph (West)    
Max Wind Speed 5 mph    
Max Gust Speed -    
Visibility 10 miles    
Events      
Averages and records for this station are not official NWS values.
T = Trace of Precipitation, MM = Missing Value Source: NWS Daily Summary

Daily Weather History Graph

Daily Weather History Graph

Search for Another Location

Airport or City:

Trip Planner

Search our weather history database for the weather conditions in past years. The results will help you decide how hot, cold, wet, or windy it might be!

Date:

Astronomy

Mar. 18, 2015 Rise Set
Actual Time 7:49 AM AKDT 7:51 PM AKDT
Civil Twilight 7:05 AM AKDT 8:36 PM AKDT
Nautical Twilight 6:12 AM AKDT 9:29 PM AKDT
Astronomical Twilight 5:13 AM AKDT 10:28 PM AKDT
Moon 7:11 AM AKDT (3/18) 5:53 PM AKDT (3/18)
Length of Visible Light 13h 30m
Length of Day
12h 01m
Waning Crescent, 4% of the Moon is Illuminated
Mar 18
Waning Crescent
Mar 20
New
Mar 26
First Quarter
Apr 4
Full
Apr 11
Last Quarter

Hourly Weather History & Observations

Time (AKDT) Temp. Windchill Dew Point Humidity Pressure Visibility Wind Dir Wind Speed Gust Speed Precip Events Conditions
12:53 AM 12.9 °F - 8.1 °F 81% 29.99 in 10.0 mi Calm Calm - N/A   Clear
1:53 AM 9.0 °F - 3.9 °F 80% 29.98 in 10.0 mi Calm Calm - N/A   Clear
2:53 AM 7.0 °F - 1.0 °F 77% 29.99 in 10.0 mi Calm Calm - N/A   Clear
3:53 AM 7.0 °F 0.1 °F 1.9 °F 80% 30.00 in 10.0 mi West 3.5 mph - N/A   Mostly Cloudy
4:53 AM 10.9 °F - 6.1 °F 81% 30.00 in 10.0 mi Calm Calm - N/A   Overcast
5:53 AM 12.0 °F 5.9 °F 6.1 °F 77% 30.00 in 10.0 mi North 3.5 mph - N/A   Partly Cloudy
6:53 AM 10.9 °F 2.9 °F 5.0 °F 77% 30.00 in 10.0 mi NW 4.6 mph - N/A   Clear
7:53 AM 10.9 °F 4.7 °F 5.0 °F 77% 30.01 in 10.0 mi NW 3.5 mph - N/A   Partly Cloudy
8:53 AM 12.0 °F 5.9 °F 6.1 °F 77% 30.01 in 10.0 mi WNW 3.5 mph - N/A   Clear
9:53 AM 12.0 °F - 7.0 °F 80% 30.03 in 10.0 mi Calm Calm - N/A   Clear
10:53 AM 17.1 °F 11.7 °F 9.0 °F 71% 30.04 in 10.0 mi SE 3.5 mph - N/A   Clear
11:53 AM 21.9 °F - 10.0 °F 60% 30.03 in 10.0 mi Calm Calm - N/A   Partly Cloudy
12:53 PM 26.1 °F - 12.0 °F 55% 30.03 in 10.0 mi Calm Calm - N/A   Clear
1:53 PM 30.9 °F - 12.9 °F 47% 30.02 in 10.0 mi Calm Calm - N/A   Clear
2:53 PM 33.1 °F - 14.0 °F 46% 30.00 in 10.0 mi Calm Calm - N/A   Clear
3:53 PM 35.1 °F - 16.0 °F 46% 29.97 in 10.0 mi Calm Calm - N/A   Clear
4:53 PM 39.9 °F 37.8 °F 15.1 °F 36% 29.94 in 10.0 mi WSW 3.5 mph - N/A   Clear
5:53 PM 39.0 °F 35.7 °F 14.0 °F 36% 29.92 in 10.0 mi West 4.6 mph - N/A   Clear
6:53 PM 37.0 °F 34.5 °F 14.0 °F 39% 29.92 in 10.0 mi West 3.5 mph - N/A   Clear
7:53 PM 28.9 °F - 14.0 °F 54% 29.93 in 10.0 mi Calm Calm - N/A   Clear
8:53 PM 27.0 °F 23.0 °F 12.9 °F 56% 29.93 in 10.0 mi WSW 3.5 mph - N/A   Clear
9:53 PM 26.1 °F - 12.0 °F 55% 29.93 in 10.0 mi Calm Calm - N/A   Clear
10:53 PM 21.0 °F 14.6 °F 10.9 °F 65% 29.92 in 10.0 mi West 4.6 mph - N/A   Clear
11:53 PM 16.0 °F 10.4 °F 9.0 °F 74% 29.93 in 10.0 mi SSW 3.5 mph - N/A   Clear